This is the latest recevied weather packets stored in our database for station/object IZ5MMH-4. If no packets are shown the sender has not sent any weather packets the latest 10 day(s).
| Time | Temp. | Humidity | Pressure | Rain* | Wind** | Luminosity | Snow |
|---|---|---|---|---|---|---|---|
| 1787976863 | 28.33° C | 65% | 1016.8 hPa | - | - | - | - |
| 1787976263 | 28.33° C | 63% | 1016.7 hPa | - | - | - | - |
| 1787975663 | 28.33° C | 62% | 1016.7 hPa | - | - | - | - |
| 1787975063 | 28.33° C | 63% | 1016.6 hPa | - | - | - | - |
| 1787974463 | 28.33° C | 64% | 1016.8 hPa | - | - | - | - |
| 1787973863 | 28.33° C | 64% | 1017 hPa | - | - | - | - |
| 1787973263 | 28.33° C | 65% | 1016.6 hPa | - | - | - | - |
| 1787972663 | 28.33° C | 67% | 1016.3 hPa | - | - | - | - |
| 1787972063 | 28.33° C | 65% | 1016.5 hPa | - | - | - | - |
| 1787971463 | 28.89° C | 68% | 1016.5 hPa | - | - | - | - |
| 1787970863 | 28.89° C | 68% | 1016.6 hPa | - | - | - | - |
| 1787970263 | 28.89° C | 64% | 1016.6 hPa | - | - | - | - |
| 1787969663 | 28.89° C | 61% | 1016.4 hPa | - | - | - | - |
| 1787969063 | 28.89° C | 59% | 1016.5 hPa | - | - | - | - |
| 1787968463 | 28.89° C | 57% | 1016.3 hPa | - | - | - | - |
| 1787967863 | 28.89° C | 57% | 1016.1 hPa | - | - | - | - |
| 1787967263 | 28.89° C | 58% | 1016.4 hPa | - | - | - | - |
| 1787966663 | 28.89° C | 62% | 1016.1 hPa | - | - | - | - |
| 1787966064 | 28.89° C | 65% | 1016.4 hPa | - | - | - | - |
| 1787965464 | 28.89° C | 73% | 1016.4 hPa | - | - | - | - |
| 1787964863 | 28.89° C | 77% | 1016.6 hPa | - | - | - | - |
| 1787964263 | 28.89° C | 79% | 1016.8 hPa | - | - | - | - |
| 1787963663 | 29.44° C | 91% | 1016.7 hPa | - | - | - | - |
| 1787963063 | 30° C | 10% | - | - | - | - | - |
| 1787962463 | 30° C | 10% | - | - | - | - | - |
* Rain since midnight (hover to see other rain measurements)
** Current wind speed in m/s (hover to see current wind gust speed)